Temperature
12 13 13 13 13 13 13 12 12 13 12 13 13 13 14 14 14 14 14 14 14 14 14 14 13 13 13 13 13 13 13 13 12 12 11 11 11 11 11 11 11 11 11 10
12 12 12 13 13 13 13 13 12 13 12 12 13 13 13 14 14 13 14 14 14 14 14 13 13 13 13 13 13 13 12 12 12 12 11 11 11 11 10 10 10 10 10 10
10 11 12 12 12 12 12 12 12 12 12 12 12 12 13 14 13 14 14 14 14 14 13 13 13 13 13 13 13 12 12 12 12 11 11 11 11 10 10 10 10 10 10 10
9 11 12 12 12 12 12 12 12 12 12 12 13 13 14 14 14 14 14 13 13 13 13 13 13 13 12 12 12 12 12 11 11 11 11 10 10 10 10 10 10 9 9 9
9 10 11 12 12 12 12 12 12 11 12 12 12 12 13 14 14 14 14 13 13 13 13 13 12 12 12 12 11 11 11 11 11 11 10 10 10 10 9 9 9 9 9 9
8 10 10 11 12 12 12 12 12 11 11 11 11 10 12 14 13 13 13 13 13 13 12 12 12 12 11 11 11 11 11 11 10 10 10 10 10 9 9 9 9 9 8 8
8 9 10 11 11 12 11 11 12 12 12 11 11 12 13 13 13 13 13 13 12 12 12 12 11 11 11 11 11 11 11 10 10 10 10 10 9 9 9 9 8 8 8 8
7 9 10 11 10 10 11 12 12 12 12 12 12 12 12 12 12 12 12 12 12 12 11 11 11 11 11 11 11 10 10 10 10 10 9 9 9 9 8 8 8 7 7 7
8 9 10 10 11 12 12 12 12 12 12 12 12 12 12 12 12 12 12 11 11 11 11 11 11 10 10 10 10 10 10 10 9 9 9 9 8 8 8 8 7 7 7 7
7 8 10 11 11 12 12 12 12 12 12 11 11 11 11 11 11 11 11 11 11 10 10 10 10 10 10 10 10 10 10 9 9 9 8 8 8 8 7 7 7 7 6 6
7 8 9 11 11 11 11 11 11 11 11 11 11 11 11 11 10 11 10 10 10 10 10 10 10 10 10 9 9 9 9 9 8 8 8 8 7 7 7 7 7 6 6 6
8 9 9 10 11 11 11 11 11 11 10 10 10 10 10 10 10 10 10 10 10 10 10 10 10 10 10 9 9 9 8 8 8 8 8 7 7 7 7 6 6 6 6 6
10 10 10 10 11 10 10 10 10 10 10 10 10 10 10 10 10 10 9 9 9 9 9 9 9 9 9 9 9 8 8 8 8 7 7 7 7 7 6 6 6 6 5 5
9 9 9 9 10 10 10 9 9 9 9 9 9 9 9 9 9 9 9 9 9 9 9 9 9 9 9 8 8 8 8 7 7 7 7 7 6 6 6 6 5 5 5 5
9 9 9 9 9 9 9 9 9 9 9 9 8 8 9 9 9 9 9 8 8 8 8 8 8 8 8 8 8 7 7 7 7 7 6 6 6 6 6 5 5 5 5 5
8 9 9 8 8 8 8 8 8 8 8 8 8 8 8 8 8 8 8 8 8 8 8 8 8 8 8 7 7 7 7 7 6 6 6 6 6 5 5 5 5 5 5 4
8 7 8 8 8 8 8 8 8 8 8 7 7 7 7 7 7 8 8 8 7 7 7 7 7 7 7 7 7 7 6 6 6 6 6 5 5 5 5 5 5 4 4 4
8 8 8 8 8 7 7 7 7 7 7 7 7 7 7 7 7 7 7 7 7 7 7 7 7 7 7 7 7 7 6 6 6 6 5 5 5 5 5 4 4 4 4 4
8 8 8 7 7 7 7 7 7 7 7 7 7 6 6 6 7 7 7 7 7 7 7 7 7 6 6 6 6 6 6 6 6 5 5 5 5 4 4 4 4 4 4 3
8 7 7 7 7 7 7 7 7 6 6 6 6 6 6 6 6 6 6 6 6 6 6 6 6 6 6 6 6 6 6 5 5 5 5 5 4 4 4 4 4 4 3 3
7 7 7 7 6 6 6 6 6 6 6 6 6 6 6 6 6 6 6 6 6 6 6 6 6 6 6 5 5 5 5 5 5 5 4 4 4 4 4 4 3 3 3 3
6 6 6 6 6 6 6 6 6 6 5 5 5 5 5 5 5 5 5 5 5 5 5 5 5 5 5 5 5 5 5 5 4 4 4 4 4 4 3 3 3 3 3 2
6 6 6 6 6 5 5 5 5 5 5 5 5 5 5 5 5 5 5 5 5 5 5 5 5 5 5 5 5 5 5 4 4 4 4 4 3 3 3 3 3 3 2 2
6 5 5 5 5 5 5 5 5 5 5 5 4 4 4 4 4 4 4 4 4 4 4 4 4 4 4 4 4 4 4 4 4 4 4 3 3 3 3 3 3 2 2 2
5 5 5 5 5 5 5 4 4 4 4 4 4 4 4 4 4 4 4 4 4 4 4 4 4 4 4 4 4 4 4 4 4 4 3 3 3 3 3 2 2 2 2 1
5 4 4 4 4 4 4 4 4 4 4 4 4 4 4 3 3 3 3 3 3 3 3 3 3 3 3 3 3 3 3 3 3 3 3 3 3 2 2 2 2 1 1 1
4 4 4 4 4 4 4 3 3 3 3 3 3 3 3 3 3 3 3 3 3 3 3 3 3 3 3 3 3 3 3 3 3 3 2 2 2 2 2 1 1 1 1 1
Wind_Speed
5 5 4 5 6 5 6 6 7 7 7 9 7 6 5 4 2 1 1 1 1 2 2 2 2 2 2 2 2 2 3 3 4 4 3 2 2 1 1 1 1 1 1 1
4 4 3 5 7 7 7 6 6 5 8 7 5 3 3 3 2 2 3 3 3 3 3 3 3 3 2 2 2 2 2 3 3 3 3 3 2 2 2 1 1 1 1 1
4 5 3 5 6 6 4 4 5 7 8 4 3 4 5 4 3 4 4 4 4 4 4 4 4 4 4 3 2 2 3 2 2 3 4 3 3 2 2 2 1 1 1 1
2 2 4 6 2 3 4 3 4 4 3 3 4 5 4 2 3 4 4 4 4 4 4 4 3 2 2 1 2 2 3 3 3 3 3 3 3 3 2 2 2 1 1 1
2 2 6 6 3 1 3 5 2 3 3 3 3 4 4 4 4 5 5 4 4 4 3 2 2 2 1 1 1 2 2 3 3 4 4 4 4 3 2 2 2 1 1 1
2 2 5 5 5 4 1 4 3 2 3 3 1 2 6 4 3 4 4 3 2 1 1 1 2 1 2 2 2 2 3 3 3 4 5 5 4 3 2 2 2 2 1 1
3 4 6 5 5 2 3 5 5 3 3 3 4 6 6 4 3 3 4 3 2 2 2 2 2 2 2 2 3 4 2 2 2 3 4 4 4 3 3 2 2 2 1 1
3 3 6 4 2 2 4 4 4 4 4 4 5 5 5 4 3 3 3 2 2 2 2 2 2 3 3 4 4 2 2 2 2 2 2 3 4 3 3 3 2 2 1 1
6 6 4 3 3 4 3 4 4 4 5 4 4 5 5 4 3 3 3 2 2 2 2 2 2 3 4 4 2 2 2 3 2 2 2 3 4 4 3 3 3 2 2 2
3 6 6 6 5 4 3 4 5 5 4 3 4 4 4 3 3 3 3 2 2 2 2 3 3 3 4 3 2 3 3 3 2 2 2 2 2 3 3 3 3 3 3 3
5 6 7 6 5 5 5 5 5 5 4 3 3 4 4 4 4 3 3 3 2 3 4 4 3 3 3 2 3 3 3 2 2 2 3 2 2 2 3 4 5 5 5 4
6 6 5 7 6 4 4 5 5 4 5 4 3 4 4 4 4 3 3 3 3 3 4 4 3 3 3 2 3 4 3 3 2 2 2 2 2 1 1 2 4 4 5 5
5 4 4 6 5 4 4 4 4 4 4 5 5 4 3 4 4 3 4 3 3 4 4 4 3 4 3 3 4 4 4 3 3 3 3 3 3 3 1 1 1 2 3 4
4 2 3 4 5 4 3 4 4 4 4 4 4 4 4 4 4 4 4 5 4 3 3 3 3 4 3 3 4 4 3 4 3 3 4 3 3 3 3 3 1 1 2 3
5 4 5 4 3 3 3 3 3 4 5 5 4 3 4 4 5 5 5 5 3 3 3 3 4 4 3 3 4 4 3 3 3 3 3 3 3 3 2 2 2 1 1 1
5 4 3 3 3 4 3 3 3 5 5 5 5 5 5 5 5 5 5 5 3 4 4 4 4 4 2 3 3 3 3 4 3 3 3 3 3 3 3 2 2 2 2 2
3 4 4 4 4 4 4 4 4 5 5 5 6 5 5 4 5 5 5 5 4 5 4 4 4 3 3 3 4 3 3 3 4 3 3 3 3 3 3 3 3 3 3 3
6 7 6 5 5 5 5 5 5 5 5 6 5 4 4 4 5 6 6 5 4 4 4 4 4 3 3 3 3 3 3 3 3 3 3 3 3 3 3 3 3 3 2 2
5 5 5 5 5 4 5 5 5 5 5 4 4 5 5 5 5 5 5 4 4 5 5 4 4 2 3 3 3 3 3 3 3 3 3 3 3 3 3 3 3 3 2 2
6 5 5 5 4 4 5 5 5 5 5 4 4 5 5 6 5 4 4 5 5 5 4 3 2 2 2 3 3 2 3 3 3 3 3 3 3 3 3 3 3 3 3 3
5 5 5 5 5 5 5 5 4 5 5 4 4 5 6 6 5 4 4 5 5 4 4 3 2 2 2 2 3 2 3 3 3 3 3 3 3 3 3 3 3 3 3 3
4 4 5 5 5 6 6 5 5 5 5 4 5 4 5 5 5 4 5 5 5 4 3 2 2 3 2 2 2 3 3 3 3 3 3 3 3 3 3 3 3 3 3 3
5 5 5 5 6 6 6 5 5 5 5 5 5 5 5 5 4 4 5 4 4 5 3 3 4 4 3 1 2 2 3 3 3 3 3 4 4 4 4 4 3 3 3 3
5 5 5 5 4 4 5 5 5 4 4 5 5 5 4 4 4 4 4 5 5 4 3 4 4 3 2 1 2 2 2 3 3 3 3 3 3 3 3 3 3 3 3 3
5 5 4 4 3 4 5 4 4 4 4 4 4 4 3 3 3 3 3 3 4 3 2 3 3 2 1 1 2 2 2 2 3 2 2 2 2 2 3 3 3 3 3 3
5 4 4 5 5 4 3 3 3 3 3 3 4 3 3 3 3 2 2 3 3 3 2 2 2 1 1 1 1 1 1 1 2 2 2 2 2 2 2 2 3 2 2 2
4 4 3 3 3 3 3 3 3 3 3 3 4 3 3 3 2 2 2 2 2 2 2 1 1 1 0 0 0 1 1 1 1 1 1 1 1 2 2 2 2 2 2 2
Wind_Direction
257 265 244 245 244 217 209 206 210 239 240 264 272 276 284 279 282 287 285 286 257 246 255 265 270 276 269 261 250 222 199 203 212 205 194 187 187 191 191 196 194 180 161 153
285 281 264 265 253 233 228 220 221 246 263 265 277 281 284 271 253 253 257 259 263 259 247 247 250 256 258 251 243 201 192 208 200 178 174 175 175 166 157 163 152 132 134 148
274 297 314 274 246 218 214 212 193 224 249 272 293 280 271 257 238 245 253 254 249 245 240 242 242 236 232 233 217 188 189 195 191 177 175 182 172 149 157 173 151 141 162 145
264 357 249 251 279 210 221 246 226 230 259 258 263 277 276 252 232 250 259 258 256 249 247 251 248 244 239 211 187 185 188 195 196 183 180 171 160 163 174 173 167 176 201 208
160 242 276 297 302 266 232 269 250 238 276 293 321 344 310 270 240 240 245 246 242 244 242 239 239 224 182 180 186 185 203 208 201 187 180 174 176 183 180 169 169 183 193 192
152 206 246 262 300 303 176 271 300 254 266 287 17 318 284 289 261 254 257 254 245 250 233 220 235 179 156 177 191 223 228 219 203 187 177 180 186 184 182 177 185 175 178 198
185 224 262 278 316 53 129 268 307 274 256 239 222 240 272 296 288 266 264 261 233 204 224 233 211 174 186 201 227 240 228 195 185 191 182 175 171 169 167 169 161 158 170 264
173 211 258 307 55 156 238 288 298 283 268 261 267 281 292 290 288 284 273 267 230 212 244 245 197 184 210 232 243 234 183 169 178 185 183 169 160 159 157 157 159 175 181 274
200 221 262 269 249 271 272 292 292 287 291 278 282 287 294 295 297 303 290 282 264 223 248 268 229 203 221 244 234 190 180 185 186 176 174 163 163 164 165 169 177 194 196 221
252 271 282 281 284 291 288 288 294 291 295 290 283 289 295 299 303 307 307 296 283 235 240 257 252 242 241 242 207 180 182 188 183 174 177 169 173 179 182 191 194 202 207 218
252 274 299 290 274 280 301 311 320 323 309 285 279 294 291 289 289 293 302 301 289 256 253 259 257 252 254 225 180 177 186 186 187 188 188 192 199 203 201 210 204 205 212 208
239 245 235 267 283 287 297 306 308 313 322 319 288 279 289 287 286 286 288 289 287 281 273 271 261 253 244 219 187 178 187 196 196 193 195 191 188 247 251 222 221 216 209 204
245 265 250 275 297 299 292 296 299 298 296 308 310 292 291 294 292 294 296 290 274 276 275 274 269 259 245 217 196 191 196 200 200 197 196 194 189 184 216 315 297 222 216 218
265 278 285 282 283 294 302 310 316 319 316 308 308 310 310 309 306 302 294 285 279 278 280 274 270 266 250 211 197 199 198 202 199 201 199 197 195 192 189 191 214 293 276 238
274 253 254 280 302 314 321 337 336 323 322 321 317 312 307 303 299 298 299 298 292 286 284 276 273 273 255 207 195 198 200 206 204 203 200 195 187 184 184 187 194 210 293 281
283 286 274 286 295 300 312 310 300 297 303 307 308 304 300 290 289 297 306 303 291 280 274 264 265 267 237 203 195 201 210 211 196 190 188 183 181 185 190 193 197 201 213 228
259 273 279 286 281 284 284 277 269 276 290 295 294 297 305 310 308 310 312 309 290 279 271 254 259 265 236 210 198 201 201 204 195 188 190 188 188 194 197 196 203 214 227 224
236 241 241 243 253 266 276 281 282 283 282 283 293 301 300 296 295 300 306 314 313 304 291 276 266 248 233 220 199 191 190 193 192 195 197 196 195 196 195 200 210 215 232 225
260 253 250 250 251 252 262 269 276 280 284 290 295 289 285 282 284 293 303 305 294 291 293 288 289 249 224 214 188 181 185 188 193 198 199 196 190 191 194 200 209 217 214 208
251 256 259 264 264 260 263 268 273 281 287 292 292 292 293 291 290 294 297 285 270 270 280 287 280 248 227 209 179 181 187 189 193 196 193 191 197 204 205 207 208 211 213 214
262 262 262 265 271 272 265 264 265 271 278 277 272 275 279 287 292 290 291 289 290 288 289 285 268 240 221 204 194 190 193 197 197 198 199 202 205 208 208 207 209 214 217 220
284 272 263 264 268 276 276 270 264 267 271 275 278 280 285 291 296 296 283 273 287 295 299 276 264 262 253 221 201 199 202 203 204 199 201 204 207 211 212 211 215 221 221 221
280 279 274 268 266 272 280 275 268 265 265 268 272 272 270 272 271 274 286 286 288 292 294 269 272 275 264 218 205 206 207 206 205 205 206 207 210 212 214 214 218 220 222 224
286 284 279 277 277 278 282 284 280 272 269 270 268 268 268 275 282 271 268 286 293 294 286 281 282 274 257 219 208 210 212 212 210 206 204 206 208 208 209 209 212 215 218 221
282 282 284 285 277 271 270 278 289 289 285 283 282 283 277 261 262 280 288 286 288 295 296 296 300 299 284 226 212 212 215 219 214 202 191 194 202 204 207 206 206 208 213 220
281 276 273 266 261 263 265 264 271 274 274 280 289 292 296 289 279 285 294 297 293 297 306 310 304 294 280 253 238 233 234 241 227 205 197 198 201 206 212 211 207 209 213 218
286 280 282 290 292 285 278 264 259 264 261 261 275 284 290 289 284 286 291 301 303 300 303 309 298 269 248 247 278 274 265 249 220 197 189 198 205 211 211 207 204 202 206 209
Height
1530 1527 1526 1525 1524 1525 1527 1528 1531 1526 1523 1516 1512 1511 1509 1509 1508 1508 1509 1509 1508 1508 1509 1509 1509 1509 1509 1509 1510 1510 1511 1511 1512 1512 1513 1514 1514 1514 1514 1514 1514 1514 1514 1514
1529 1525 1524 1523 1520 1520 1520 1520 1521 1520 1518 1511 1510 1509 1508 1507 1506 1506 1506 1506 1506 1507 1507 1507 1506 1506 1506 1506 1507 1507 1508 1508 1509 1510 1510 1511 1512 1512 1512 1512 1512 1512 1512 1512
1535 1528 1524 1526 1517 1516 1517 1515 1516 1518 1514 1509 1508 1507 1506 1505 1504 1504 1504 1504 1504 1504 1504 1504 1504 1504 1504 1504 1504 1505 1505 1506 1506 1507 1508 1508 1509 1509 1509 1510 1510 1509 1509 1509
1537 1532 1533 1521 1512 1511 1513 1512 1511 1509 1508 1506 1506 1505 1504 1503 1503 1502 1503 1502 1502 1501 1501 1501 1501 1501 1501 1502 1502 1502 1503 1503 1504 1504 1505 1505 1506 1506 1507 1507 1507 1507 1506 1506
1539 1537 1529 1518 1512 1512 1512 1510 1507 1507 1506 1505 1504 1503 1501 1501 1501 1500 1500 1500 1499 1499 1499 1499 1499 1499 1499 1499 1499 1500 1500 1501 1501 1501 1502 1502 1503 1503 1504 1504 1504 1504 1504 1504
1538 1535 1532 1519 1510 1507 1509 1511 1505 1504 1504 1504 1504 1506 1501 1498 1498 1497 1497 1497 1496 1496 1496 1496 1496 1496 1496 1496 1496 1496 1497 1497 1498 1499 1499 1499 1500 1500 1501 1501 1501 1501 1501 1501
1537 1535 1525 1514 1509 1508 1517 1514 1505 1503 1503 1502 1501 1501 1498 1496 1495 1495 1494 1494 1493 1493 1493 1493 1493 1493 1493 1493 1493 1494 1494 1494 1495 1496 1496 1496 1497 1498 1498 1499 1499 1498 1499 1498
1535 1534 1527 1512 1510 1512 1511 1506 1504 1502 1501 1500 1498 1497 1495 1494 1492 1492 1491 1490 1490 1490 1489 1490 1490 1490 1489 1490 1490 1491 1491 1491 1492 1493 1493 1493 1494 1494 1495 1495 1495 1495 1495 1495
1525 1522 1513 1511 1509 1508 1507 1505 1503 1501 1499 1498 1496 1494 1493 1491 1490 1489 1489 1488 1487 1487 1486 1486 1486 1486 1486 1486 1487 1487 1487 1488 1488 1489 1490 1490 1490 1491 1491 1492 1492 1492 1492 1492
1520 1513 1510 1508 1507 1506 1505 1503 1501 1500 1498 1496 1494 1492 1491 1489 1488 1487 1486 1486 1485 1484 1483 1483 1483 1483 1483 1483 1483 1483 1483 1484 1484 1485 1486 1486 1487 1487 1487 1487 1488 1488 1488 1488
1516 1511 1508 1505 1504 1503 1502 1500 1499 1497 1496 1494 1492 1490 1489 1487 1486 1485 1484 1483 1482 1481 1480 1480 1480 1480 1480 1480 1480 1480 1480 1480 1481 1481 1482 1482 1482 1483 1483 1484 1484 1484 1484 1485
1511 1506 1506 1503 1502 1501 1500 1498 1497 1495 1493 1492 1491 1489 1487 1485 1484 1483 1482 1481 1479 1479 1478 1477 1477 1476 1476 1476 1476 1476 1476 1476 1477 1477 1478 1478 1478 1479 1479 1480 1480 1481 1481 1482
1504 1503 1502 1501 1500 1499 1497 1496 1495 1493 1492 1490 1488 1487 1485 1483 1482 1481 1480 1478 1477 1476 1475 1474 1473 1473 1472 1472 1472 1472 1472 1472 1473 1473 1473 1474 1474 1474 1475 1476 1476 1477 1477 1477
1501 1501 1499 1498 1497 1496 1495 1493 1492 1491 1489 1488 1486 1485 1483 1481 1480 1479 1477 1476 1474 1473 1472 1471 1470 1469 1469 1469 1468 1468 1469 1469 1469 1469 1469 1470 1470 1470 1471 1471 1471 1471 1473 1473
1498 1497 1496 1495 1494 1493 1492 1491 1489 1487 1486 1485 1484 1482 1481 1479 1477 1476 1474 1473 1471 1470 1468 1467 1466 1465 1465 1465 1465 1465 1465 1465 1465 1465 1465 1466 1466 1467 1467 1467 1467 1468 1468 1469
1494 1493 1493 1492 1491 1490 1489 1488 1486 1485 1483 1482 1481 1479 1478 1476 1475 1473 1471 1470 1468 1466 1465 1464 1463 1462 1462 1461 1461 1461 1461 1461 1461 1461 1462 1462 1462 1463 1463 1463 1464 1464 1464 1464
1491 1490 1489 1488 1488 1487 1486 1485 1484 1482 1481 1479 1478 1476 1475 1473 1471 1470 1468 1466 1464 1463 1462 1461 1460 1459 1459 1458 1458 1457 1457 1458 1458 1458 1458 1458 1459 1459 1459 1460 1460 1460 1461 1461
1488 1487 1486 1486 1485 1484 1483 1482 1481 1479 1478 1476 1475 1473 1471 1470 1468 1466 1465 1463 1461 1459 1458 1457 1456 1456 1455 1455 1454 1454 1454 1454 1454 1454 1455 1455 1455 1456 1456 1456 1457 1457 1457 1458
1485 1484 1483 1483 1482 1481 1480 1478 1477 1476 1474 1473 1471 1470 1468 1467 1465 1463 1462 1460 1458 1456 1455 1454 1453 1452 1452 1451 1451 1451 1451 1451 1451 1451 1451 1452 1452 1452 1453 1453 1453 1453 1454 1454
1480 1480 1480 1479 1478 1477 1476 1475 1474 1472 1471 1469 1468 1466 1464 1463 1461 1460 1458 1456 1454 1453 1451 1450 1449 1448 1448 1448 1448 1447 1447 1447 1447 1447 1448 1448 1448 1449 1449 1449 1449 1450 1450 1450
1477 1476 1476 1475 1474 1473 1472 1471 1470 1468 1467 1466 1464 1462 1461 1459 1458 1456 1454 1452 1451 1450 1448 1447 1446 1445 1445 1444 1444 1444 1444 1444 1444 1444 1444 1444 1444 1445 1445 1445 1446 1446 1446 1446
1473 1472 1471 1471 1470 1469 1468 1467 1465 1464 1463 1462 1460 1459 1457 1455 1453 1452 1450 1449 1447 1446 1444 1443 1442 1442 1441 1441 1440 1440 1440 1440 1440 1440 1440 1440 1441 1441 1441 1441 1442 1442 1442 1442
1470 1469 1468 1466 1465 1464 1463 1462 1461 1460 1458 1457 1456 1454 1453 1451 1450 1448 1446 1445 1444 1442 1441 1440 1439 1438 1438 1437 1437 1436 1436 1436 1436 1436 1436 1437 1437 1437 1437 1437 1438 1438 1438 1438
1466 1465 1463 1462 1461 1460 1458 1457 1457 1455 1454 1453 1452 1451 1449 1447 1446 1445 1443 1442 1440 1439 1437 1436 1436 1435 1434 1433 1433 1433 1432 1432 1432 1433 1433 1433 1433 1433 1433 1433 1433 1434 1434 1434
1462 1461 1459 1458 1457 1455 1454 1453 1452 1451 1450 1449 1447 1447 1445 1444 1442 1441 1440 1438 1437 1435 1434 1433 1432 1431 1430 1430 1429 1429 1428 1428 1429 1429 1429 1429 1429 1430 1429 1429 1429 1429 1430 1430
1458 1457 1456 1454 1453 1452 1450 1449 1448 1447 1445 1444 1443 1442 1441 1440 1439 1438 1436 1435 1433 1432 1430 1429 1429 1428 1427 1426 1426 1426 1425 1425 1425 1426 1426 1426 1426 1426 1426 1426 1426 1426 1426 1426
1454 1453 1452 1450 1449 1448 1447 1445 1444 1443 1442 1441 1439 1438 1437 1436 1435 1434 1433 1431 1430 1429 1428 1427 1426 1425 1424 1423 1423 1423 1423 1422 1422 1422 1422 1423 1423 1423 1422 1422 1422 1422 1422 1422